Weather History for Du Bois, PA

Change the Weather History Date:

Saturday, February 16, 2013

  Actual Average Record
Temperature  
Mean Temperature 21 °F 26 °F  
Max Temperature 27 °F 35 °F 60 °F (1990)
Min Temperature 14 °F 18 °F -10 °F (1963)
Degree Days  
Heating Degree Days 44 38  
Month to date heating degree days 668 636  
Since 1 July heating degree days 4249 4580  
Cooling Degree Days 0 0  
Month to date cooling degree days 0 0  
Year to date cooling degree days 0 0  
Moisture  
Dew Point 12 °F    
Average Humidity 58    
Maximum Humidity 74    
Minimum Humidity 42    
Precipitation  
Precipitation T in 0.08 in 0.99 in (1993)
Month to date precipitation 0.25 1.28  
Sea Level Pressure  
Sea Level Pressure 29.94 in    
Wind  
Wind Speed 6 mph (NW)    
Max Wind Speed 13 mph    
Max Gust Speed 16 mph    
Visibility 8 miles    
Events Fog , Snow    
T = Trace of Precipitation, MM = Missing Value Source: NWS Daily Summary

Daily Weather History Graph

Daily Weather History Graph

Search for Another Location

Airport:

Trip Planner

Search our weather history database for the weather conditions in past years. The results will help you decide how hot, cold, wet, or windy it might be!

Date:

Astronomy

Feb. 16, 2013 Rise Set
Actual Time 7:08 AM EST 5:51 PM EST
Civil Twilight 6:40 AM EST 6:19 PM EST
Nautical Twilight 6:08 AM EST 6:51 PM EST
Astronomical Twilight 5:36 AM EST 7:23 PM EST
Moon 10:16 AM EST (2/16) No Moon Set
Length of Visible Light 11h 39m
Length of Day
10h 42m
Waxing Crescent, 39% of the Moon is Illuminated
Feb 16
Waxing Crescent
Feb 17
First Quarter
Feb 25
Full
Mar 4
Last Quarter
Mar 11
New

Hourly Weather History & Observations

Time (EST) Temp. Windchill Dew Point Humidity Pressure Visibility Wind Dir Wind Speed Gust Speed Precip Events Conditions
12:56 AM 24.1 °F 17.0 °F 17.1 °F 75% 30.02 in 10.0 mi NW 5.8 mph - N/A   Overcast
1:56 AM 23.0 °F 17.0 °F 16.0 °F 74% 30.01 in 10.0 mi NNW 4.6 mph - N/A   Overcast
2:56 AM 23.0 °F 17.0 °F 15.1 °F 72% 30.01 in 10.0 mi NW 4.6 mph - N/A   Overcast
3:09 AM 23.0 °F 14.7 °F 15.8 °F 74% 29.94 in 10.0 mi North 6.9 mph - N/A   Overcast
3:56 AM 21.9 °F 13.4 °F 14.0 °F 72% 30.00 in 10.0 mi NNW 6.9 mph - N/A   Overcast
4:23 AM 21.2 °F 11.7 °F 12.2 °F 68% 29.94 in 10.0 mi North 8.1 mph - 0.00 in   Overcast
4:56 AM 19.9 °F 11.1 °F 10.0 °F 65% 30.01 in 10.0 mi NNW 6.9 mph - 0.00 in   Overcast
6:56 AM 18.0 °F 11.1 °F 9.0 °F 68% 30.01 in 10.0 mi North 4.6 mph - N/A   Mostly Cloudy
7:56 AM 17.1 °F 11.7 °F 10.9 °F 77% 30.03 in 10.0 mi North 3.5 mph - N/A   Clear
8:56 AM 19.9 °F 13.4 °F 8.1 °F 60% 30.02 in 10.0 mi NNE 4.6 mph - N/A   Clear
9:56 AM 21.9 °F 15.7 °F 8.1 °F 55% 30.01 in 10.0 mi NNE 4.6 mph - N/A   Clear
10:56 AM 23.0 °F 17.0 °F 8.1 °F 53% 30.00 in 10.0 mi NNW 4.6 mph - N/A   Scattered Clouds
11:56 AM 24.1 °F 17.0 °F 8.1 °F 51% 29.97 in 10.0 mi Variable 5.8 mph - N/A   Partly Cloudy
12:56 PM 25.0 °F 16.3 °F 7.0 °F 46% 29.94 in 10.0 mi WNW 8.1 mph - N/A   Mostly Cloudy
1:56 PM 26.1 °F 17.6 °F 7.0 °F 44% 29.92 in 10.0 mi West 8.1 mph - N/A   Overcast
2:56 PM 25.0 °F 14.2 °F 8.1 °F 49% 29.91 in 10.0 mi West 11.5 mph - N/A   Overcast
3:56 PM 26.1 °F 19.4 °F 9.0 °F 49% 29.91 in 10.0 mi WNW 5.8 mph - N/A   Overcast
4:32 PM 24.8 °F 14.0 °F 14.0 °F 64% 29.85 in 2.0 mi West 11.5 mph - 0.00 in Snow Light Snow
4:36 PM 23.0 °F 13.1 °F 15.8 °F 74% 29.85 in 0.8 mi WNW 9.2 mph - 0.00 in Snow Light Snow
4:56 PM 21.9 °F 12.5 °F 18.0 °F 85% 29.94 in 0.5 mi NW 8.1 mph - 0.00 in Fog , Snow Light Snow
5:14 PM 21.2 °F 12.6 °F 19.4 °F 93% 29.86 in 0.8 mi NNW 6.9 mph - 0.00 in Snow Light Snow
5:21 PM 21.2 °F 10.9 °F 17.6 °F 86% 29.86 in 1.8 mi NW 9.2 mph - 0.00 in Snow Light Snow
5:24 PM 21.2 °F 10.9 °F 17.6 °F 86% 29.85 in 3.0 mi NNW 9.2 mph - 0.00 in Snow Light Snow
5:32 PM 21.2 °F 10.1 °F 17.6 °F 86% 29.86 in 4.0 mi NNW 10.4 mph - 0.00 in   Overcast
5:53 PM 21.2 °F 12.6 °F 17.6 °F 86% 29.87 in 4.0 mi NW 6.9 mph - 0.00 in Snow Light Snow
5:56 PM 21.0 °F 14.6 °F 17.1 °F 85% 29.95 in 5.0 mi NNW 4.6 mph - 0.00 in Snow Light Snow
6:03 PM 21.2 °F 12.6 °F 15.8 °F 80% 29.87 in 10.0 mi NW 6.9 mph - N/A   Overcast
6:13 PM 21.2 °F 13.6 °F 15.8 °F 80% 29.87 in 10.0 mi WNW 5.8 mph - N/A   Overcast
6:44 PM 19.4 °F 10.4 °F 15.8 °F 86% 29.87 in 10.0 mi WNW 6.9 mph - N/A   Overcast
6:56 PM 19.9 °F 11.1 °F 12.9 °F 74% 29.96 in 10.0 mi NW 6.9 mph - N/A   Overcast
7:56 PM 19.0 °F 11.1 °F 9.0 °F 65% 29.95 in 10.0 mi NNW 5.8 mph - N/A   Clear
8:56 PM 18.0 °F - 5.0 °F 57% 29.94 in 10.0 mi Calm Calm - N/A   Clear
9:56 PM 16.0 °F 7.4 °F 5.0 °F 62% 29.93 in 10.0 mi North 5.8 mph - N/A   Clear
10:56 PM 15.1 °F 9.4 °F 3.0 °F 59% 29.91 in 10.0 mi NNW 3.5 mph - N/A   Clear
11:56 PM 14.0 °F 8.2 °F 3.0 °F 62% 29.90 in 10.0 mi NNW 3.5 mph - N/A   Clear